www.pogodaiklimat.ru

Погода и климат >> Архив погоды >> Иран >> Abu Musa Island


ПОГОДА в Abu Musa Island

  • Прогноз погоды в Abu Musa Island
  • Монитор погоды в Abu Musa Island
  • Климат города

АРХИВ ПОГОДЫ в Abu Musa Island

Время (UTC), дата Ветер
(напр.,м/с)
 
Видим.   Явления Облачность Т
(С)
Тd
(С)
f
(%)
Тe
(С)
Тes
(С)
Комфортность P
(гПа)
Po
(гПа)
Тmin
(С)
Tmax
(С)
R
(мм)
R24
(мм)
S
(см)
03 14.11 СЗ 5 10 км ясно +26.0 +19.9 69 +32 +32 очень
душно
1011.6 1010.8 +22.0
06 14.11 СВ 2 10 км ясно +28.8 1013.4 1012.6
09 14.11 СВ 5 10 км ясно +30.0 +20.7 57 +37 +43 очень
душно
1012.3 1011.5
12 14.11 СВ 4 10 км ясно +29.0 1011.0 1010.2
15 14.11 В 3 10 км ясно +26.2 +20.1 69 +32 +32 очень
душно
1012.0 1011.2 +30.2
03 15.11 В 3 10 км 3/3 750 м
[Sc]
+25.6 +22.4 83 +34 +34 очень
душно
1013.0 1012.2 +23.6
06 15.11 В 7 10 км ясно +29.0 1015.9 1015.1
09 15.11 В 6 10 км ясно +29.6 +19.6 55 +36 +40 очень
душно
1014.9 1014.1
12 15.11 СВ 3 10 км ясно +29.4 1013.4 1012.6
15 15.11 СВ 3 10 км ясно +27.0 +21.0 70 +34 +34 очень
душно
1013.0 1012.3 +30.2
03 16.11 В 3 10 км ясно +27.0 +24.1 84 +37 +37 очень
душно
1016.1 1015.4 +23.4
06 16.11 В 3 10 км ясно +28.4 1018.7 1017.9
09 16.11 СВ 5 10 км ясно +29.6 +22.9 67 +39 +45 очень
душно
1016.5 1015.8
12 16.11 С 3 10 км 5/0
[Ci fib]
+30.0 1015.0 1014.3
15 16.11 СВ 3 10 км 5/0
[Ci fib]
+27.4 +20.4 66 +34 +34 очень
душно
1015.5 1014.8 +31.4
03 17.11 С 2 10 км 3/3 750 м
[Sc Ci fib]
+26.4 +23.8 86 +36 +36 очень
душно
1015.1 1014.4 +24.4
06 17.11 С 2 10 км 4/3 600 м
[Sc As trans]
+29.8 1017.2 1016.5
09 17.11 СЗ 2 10 км ясно +30.6 +25.0 72 +44 +54 опасность
перегрева
1015.1 1014.4
12 17.11 СЗ 3 10 км 8/3 600 м
[Sc Cs]
+30.4 1014.0 1013.3
15 17.11 СЗ 7 10 км 3/3 750 м
[Sc]
+27.4 +23.9 81 +38 +38 очень
душно
1014.4 1013.7 +31.2
03 18.11 СЗ 10 6000 м дымка 4/3 750 м
[Sc Ci fib]
+25.4 +21.8 80 +33 +33 очень
душно
1014.5 1013.7 +23.4
06 18.11 СЗ 8 7000 м мгла ясно +28.4 1015.6 1014.9
12 18.11 З 5 10 км ясно +29.4 1012.3 1011.5
15 18.11 З 10 10 км ясно +26.8 +22.4 77 +35 +35 очень
душно
1012.7 1012.0 +29.4
03 19.11 З 4 6000 м мгла 3/3 600 м
[St]
+26.0 +21.8 78 +33 +33 очень
душно
1014.1 1013.4 +25.8
06 19.11 З 3 8000 м мгла ясно +28.4 1015.8 1015.0
09 19.11 СЗ 4 10 км ясно +29.4 +22.0 64 +38 +45 очень
душно
1014.6 1013.8
12 19.11 СЗ 4 10 км ясно +29.0 1013.2 1012.4
15 19.11 З 4 10 км ясно +26.8 +22.7 78 +35 +35 очень
душно
1014.0 1013.2 +30.4
03 20.11 ЮЗ 3 10 км 1/1 600 м
[St]
+25.0 +20.1 74 +31 +31 очень
душно
1014.7 1014.0 +21.2
06 20.11 З 4 10 км 3/3 600 м
[Sc]
+27.8 1016.9 1016.1
09 20.11 З 4 10 км 3/0
[Ci fib]
+29.0 +20.6 61 +36 +42 очень
душно
1015.3 1014.5
12 20.11 З 4 10 км 5/3 600 м
[Sc Ci fib]
+27.6 1013.5 1012.7
15 20.11 СЗ 7 10 км 3/3 750 м
[Sc]
+27.0 +19.3 63 +33 +33 очень
душно
1015.1 1014.3 +30.2

 

Местоположение метеостанции Abu Musa Island (Иран): широта 25.83 долгота 54.83 высота над уровнем моря 6 м.

В архиве по умолчанию представлена погода в Abu Musa Island за последнюю неделю. Архивные данные за месяц целиком и за предыдущие месяцы, начиная с января 2011 года, Вы можете получить, выбрав интересующий диапазон дат из раскрывающегося списка и нажав кнопку "Ввод!".


*Определитесь, кто Вы:
робот инопланетянин человек

Внимание! Время в таблицах - всемирное. Для получения местного времени необходимо прибавить поправку, которая в Abu Musa Island равна 3.5 ч.

Смотрите также архив погоды в соседних городах и на ближайших метеорологических станциях:

Погода в Sirri Island (Иран) (29 км)
Погода в Dubai (ОАЭ) (82 км)
Погода в Bandar Lengeh (Иран) (83 км)
Погода в Sharjah (ОАЭ) (89 км)
Погода в Dubai Al Maktoum Int Airport (ОАЭ) (109 км)
Погода в Ras Al Khaimah Int Airport (ОАЭ) (113 км)
Погода в Kish Island (Иран) (113 км)
Погода в Diba (Оман) (144 км)
Погода в Khasab Airport (Оман) (145 км)
Погода в Khasab (Оман) (147 км)

Пояснения к столбцам:

Ветер - указаны скорость ветра в м/с - средняя за 10 мин, порывы в срок и между сроками (в фигурных скобках) и направление, откуда дует ветер: С - северный, СВ - северо-восточный, В - восточный, ЮВ - юго-восточный, Ю - южный, ЮЗ - юго-западный, З - западный, СЗ - северо-западный.
Видимость - горизонтальная дальность видимости в метрах или километрах. При видимости от 1 до 10 км при отсутствии осадков обычно наблюдается дымка, при ухудшении видимости до 1 км и менее - туман. В сухую погоду видимость может ухудшаться дымом, пылью или мглою.
Явления - указаны атмосферные явления, наблюдавшиеся в срок или в последний час перед сроком; фигурными скобками обозначены явления, наблюдавшиеся между сроками (за 1-3 часа до срока); квадратными скобками обозначены град или гололедные отложения с указанием их диаметра в мм.
Облачность - указаны через наклонную черту общая и нижняя облачность в баллах и высота нижней границы облаков в метрах; квадратными скобками обозначены формы облаков: Ci - перистые, Cs - перисто-слоистые, Cc - перисто-кучевые, Ac - высококучевые, As - высокослоистые, Sc - слоисто-кучевые, Ns - слоисто-дождевые, Cu - кучевые, Cb - кучево-дождевые. Подробнее классификацию облаков см. в Атласе облаков (PDF).
T - Температура воздуха - температура, измеренная на высоте 2 м над землей.
Td - Температура точки росы - температура, при понижении до которой содержащийся в воздухе водяной пар достигнет насыщения.
f - Относительная влажность воздуха - влажноcть воздуха, измеренная на высоте 2 м над землей.
Te - Эффективная температура - температура, которую ощущает одетый по сезону человек в тени. Характеристика душности погоды. При расчете учитывается влияние влажности воздуха и скорости ветра на теплоощущения человека.
Tes - Эффективная температура на солнце - температура, которую ощущает человек, с поправкой на солнечный нагрев. Характеристика знойности погоды. Зависит от высоты солнца над горизонтом, облачности и скорости ветра. Ночью, в пасмурную погоду, а также при ветре 12 м/с и более поправка равна нулю.
P - Атмосферное давление - приведенное к уровню моря атмосферное давление.
Po - Атмосферное давление - измеренное на уровне метеостанции атмосферное давление.
Tmin - Минимальная температура - минимум температуры воздуха на высоте 2 м над землей.
Tmax - Максимальная температура - максимум температуры воздуха на высоте 2 м над землей.
R - Количество осадков - Количество выпавших осадков за период времени, мм. При наведении курсора мыши на число - период времени, за который выпало указанное количество осадков.
R24 - Количество осадков - Количество выпавших осадков за 24 часа, мм.
S - Снежный покров - Высота снежного покрова, см. При наведении курсора мыши на число - состояние снежного покрова и степень покрытия местности в баллах.